Location: ??? ?????
(30.6482°N, 60.5850°E)
Time: 05:38:38
(UTC+00:00)

MetOp-A - Pass Details

Date: 09 April 2020
Orbit: 820 x 821 km, 98.5° (Epoch: 05 June)

Event Time Altitude Azimuth Distance (km) Brightness Sun altitude
Exits shadow 15:50:47 36° 111° (ESE) 1,286 4.6 -19.2°
Maximum altitude 15:52:13 43° 73° (ENE) 1,131 4.5 -19.5°
Drops below altitude 10° 15:57:16 10° 3° (N) 2,420 6.8 -20.5°
Sets 15:59:43 0° 357° (N) 3,356 7.7 -21.0°
